{"data":{"norad_id":67687,"epoch":"2026-05-25T02:54:20.141280Z","epoch_age_seconds":68623,"freshness":"FRESH","line1":"1 67687U 98067YD  26145.12106645  .00049348  00000+0  63782-3 0  9993","line2":"2 67687  51.6302  50.0450 0009759  97.5806 262.6296 15.58388834 16601","mean_motion":15.58388834,"eccentricity":0.0009759,"inclination_deg":51.6302,"raan_deg":50.045,"arg_perigee_deg":97.5806,"mean_anomaly_deg":262.6296,"bstar":0.00063782,"rev_number":1660,"period_min":92.403126137902,"perigee_km":385.71227423999,"apogee_km":398.92685135926,"semimajor_km":6770.4565627996,"source":"CELESTRAK","updated_at":"2026-05-25T13:38:08.450261Z"}}